TimeEDT,TemperatureF,Dew PointF,Humidity,Sea Level PressureIn,VisibilityMPH,Wind Direction,Wind SpeedMPH,Gust SpeedMPH,PrecipitationIn,Events,Conditions,WindDirDegrees,DateUTC
12:04 AM,55.0,48.9,80,29.88,10.0,NW,6.9,-,N/A,,Scattered Clouds,310,2013-09-03 04:04:00
12:55 AM,55.9,48.9,77,29.88,10.0,NW,12.7,-,N/A,,Mostly Cloudy,310,2013-09-03 04:55:00
1:55 AM,57.9,51.1,78,29.88,10.0,NW,9.2,-,N/A,,Overcast,320,2013-09-03 05:55:00
2:55 AM,57.9,51.1,78,29.89,10.0,WNW,8.1,-,N/A,,Overcast,290,2013-09-03 06:55:00
3:55 AM,57.9,50.0,75,29.89,10.0,WNW,6.9,-,N/A,,Mostly Cloudy,290,2013-09-03 07:55:00
4:55 AM,57.0,51.1,81,29.89,10.0,NW,9.2,-,N/A,,Clear,320,2013-09-03 08:55:00
5:55 AM,55.9,51.1,84,29.89,10.0,NNW,9.2,-,N/A,,Clear,330,2013-09-03 09:55:00
6:55 AM,55.9,50.0,80,29.91,10.0,NNW,8.1,-,N/A,,Clear,330,2013-09-03 10:55:00
7:55 AM,55.9,50.0,80,29.93,10.0,West,3.5,-,N/A,,Clear,270,2013-09-03 11:55:00
8:55 AM,60.1,52.0,75,29.93,10.0,WNW,5.8,-,N/A,,Clear,290,2013-09-03 12:55:00
12:55 PM,66.9,46.0,47,29.94,10.0,NW,8.1,-,N/A,,Clear,310,2013-09-03 16:55:00
1:55 PM,68.0,50.0,52,29.93,10.0,WNW,12.7,20.7,N/A,,Clear,290,2013-09-03 17:55:00
2:55 PM,69.1,51.1,53,29.92,10.0,WNW,12.7,20.7,N/A,,Partly Cloudy,300,2013-09-03 18:55:00
3:55 PM,70.0,53.1,55,29.91,10.0,NW,13.8,19.6,N/A,,Clear,310,2013-09-03 19:55:00
4:55 PM,69.1,53.1,57,29.90,10.0,NW,13.8,-,N/A,,Clear,310,2013-09-03 20:55:00
5:55 PM,66.9,51.1,57,29.90,10.0,NW,12.7,-,N/A,,Clear,310,2013-09-03 21:55:00
6:55 PM,64.9,50.0,58,29.89,10.0,NW,6.9,-,N/A,,Clear,310,2013-09-03 22:55:00
7:55 PM,62.1,51.1,67,29.88,10.0,SW,4.6,-,N/A,,Clear,220,2013-09-03 23:55:00
8:55 PM,57.9,52.0,81,29.89,10.0,WSW,3.5,-,N/A,,Clear,250,2013-09-04 00:55:00
9:55 PM,57.9,53.1,84,29.88,10.0,WSW,3.5,-,N/A,,Clear,250,2013-09-04 01:55:00
10:55 PM,60.1,55.0,83,29.87,10.0,West,5.8,-,N/A,,Clear,260,2013-09-04 02:55:00
11:55 PM,60.1,55.9,86,29.87,10.0,West,4.6,-,N/A,,Partly Cloudy,270,2013-09-04 03:55:00